Other Public Products
Issued by NWS Charleston, SC

Current Version | Previous Version | Text Only | Print | Product List | Glossary Off
Versions: 1 2 3 4 5 6 7 8 9 10 11 12 13 14 15 16 17 18 19 20 21 22 23 24 25 26 27 28 29 30 31 32 33 34 35 36 37 38 39 40 41 42 43 44 45 46 47 48 49 50
000 FPUS82 KCHS 250512 OPUCHS TEST...KCHS/KSAV Gateway Observations...TEST National Weather Service Charleston SC 100 AM EDT TUE JUL 25 2017 NOTE: "fair" indicates few or no clouds below 12,000 feet with no significant weather and/or obstructions to visibility. SCZ050-WAZ558-NCZ071-TXZ119-213-PAZ071-DCZ001-FLZ074-172-MI076- NYZ176-178-MAZ016-IL014-TNZ027-NJZ106-GAZ044-MD014-250600- ...Gateway Observations for Charleston International... CITY SKY/WX TMP DP RH WIND PRES REMARKS Chas Airport CLOUDY 75 73 93 S7 30.00S Seattle CLEAR 71 53 52 N7 29.97R Charlotte MOCLDY 78 73 84 SW3 30.01R Dallas DFW CLEAR 82 73 74 SE8 29.98R Dallas Love CLEAR 82 73 74 SE10 29.99R Philladelphia CLOUDY 70 67 90 NE8 29.94R Wash National MOCLDY 79 69 71 N13 29.93R Baltimore CLOUDY 73 72 96 N3 29.92R Miami PTCLDY 85 76 74 CALM 30.11R HX 94 Detroit PTCLDY 62 53 72 N6 30.13R Newark CLOUDY 65 58 78 E6 29.97R Laguardia CLOUDY 64 59 83 E9 29.96S J F K CLOUDY 64 61 90 E6 29.97R Boston Logan MOCLDY 58 57 97 N12 29.98R Ft. Lauderdale PTCLDY 84 77 79 S5 30.10S HX 94 Chicago O`Hare PTCLDY 67 59 75 NE6 30.12R Chicago Midway PTCLDY 69 61 75 NE6 30.11S Houston Bush MOCLDY 82 74 76 S6 30.02S Houston Hobby PTCLDY 81 74 79 S6 30.03R Nashville PTCLDY 82 74 76 NE3 30.02R Atlanta MOCLDY 74 71 91 CALM 30.05S $$ GAZ044-118-TXZ119-213-NCZ071-DCZ001-MDZ014-506-PAZ021-071-NJZ106- NYZ176-178-MAZ106-OHZ011-021-055-MIZ076-KYZ091-ILZ014-INZ047- MNZ060-ONZ431-250600- ...Gateway Observations for Savannah International... CITY SKY/WX TMP DP RH WIND PRES REMARKS Savannah Arpt MOCLDY N/A N/A N/A S5 30.03R Atlanta MOCLDY 74 71 91 CALM 30.05S Charlotte MOCLDY 78 73 84 SW3 30.01R Dallas DFW CLEAR 82 73 74 SE8 29.98R Houston Bush MOCLDY 82 74 76 S6 30.02S Wash National MOCLDY 79 69 71 N13 29.93R Wash Dulles PTCLDY 77 65 66 N14 29.94R Baltimore CLOUDY 73 72 96 N3 29.92R Philadelphia CLOUDY 70 67 90 NE8 29.94R Newark CLOUDY 65 58 78 E6 29.97R Laguardia CLOUDY 64 59 83 E9 29.96S J F K CLOUDY 64 61 90 E6 29.97R Boston MOCLDY 58 57 97 N12 29.98R Pittsburg CLOUDY 65 56 72 NW9 30.07R Akron PTCLDY 61 52 72 N8 30.09R Cleveland CLOUDY 68 54 60 N15 30.11R Cincinnati CLEAR 71 61 70 NE13 30.09R Columbus CLEAR 64 59 85 N6 30.11R Detroit PTCLDY 62 53 72 N6 30.13R Chicago O`Hare PTCLDY 67 59 75 NE6 30.12R Minneapolis CLOUDY 69 60 73 S7 30.06R Indianapolis CLEAR 70 59 68 E14 30.09R Toronto Canada CLOUDY 63 55 77 N10 30.02R $$

USA.gov is the U.S. government's official web portal to all federal, state and local government web resources and services.